Time,TemperatureF,DewpointF,PressureIn,WindDirection,WindDirectionDegrees,WindSpeedMPH,WindSpeedGustMPH,Humidity,HourlyPrecipIn,Conditions,Clouds,dailyrainin,SoftwareType,DateUTC
2013-09-22 00:02:00,63.4,51.4,29.81,NNE,24,0.0,0.0,65,0.00,CLR,,0.00,WeatherDisplay:10.37,2013-09-22 05:02:00,
2013-09-22 00:07:00,63.2,51.2,29.81,NNE,24,0.0,0.0,65,0.00,CLR,,0.00,WeatherDisplay:10.37,2013-09-22 05:07:00,
2013-09-22 00:12:00,63.2,51.6,29.81,NNE,24,0.0,0.0,66,0.00,CLR,,0.00,WeatherDisplay:10.37,2013-09-22 05:12:00,
2013-09-22 00:17:00,63.1,51.6,29.81,NNE,24,0.0,0.0,66,0.00,CLR,,0.00,WeatherDisplay:10.37,2013-09-22 05:17:00,
2013-09-22 00:22:00,63.0,51.5,29.81,NNE,24,0.0,0.0,66,0.00,CLR,,0.00,WeatherDisplay:10.37,2013-09-22 05:22:00,
2013-09-22 00:27:00,62.9,51.4,29.81,NNE,24,0.0,0.0,66,0.00,CLR,,0.00,WeatherDisplay:10.37,2013-09-22 05:27:00,
2013-09-22 00:32:00,62.8,51.3,29.81,NNE,24,0.0,0.0,66,0.00,CLR,,0.00,WeatherDisplay:10.37,2013-09-22 05:32:00,
2013-09-22 00:37:00,62.7,51.6,29.81,NNE,24,0.0,0.0,67,0.00,CLR,,0.00,WeatherDisplay:10.37,2013-09-22 05:37:00,
2013-09-22 00:42:00,62.7,51.6,29.80,NNE,24,0.0,0.0,67,0.00,CLR,,0.00,WeatherDisplay:10.37,2013-09-22 05:42:00,
2013-09-22 00:47:00,62.6,51.1,29.81,NNE,24,0.0,0.0,66,0.00,CLR,,0.00,WeatherDisplay:10.37,2013-09-22 05:47:00,
2013-09-22 00:52:00,62.6,51.5,29.80,NNE,24,0.0,0.0,67,0.00,CLR,,0.00,WeatherDisplay:10.37,2013-09-22 05:52:00,
2013-09-22 00:57:00,62.5,51.4,29.80,NNE,24,0.0,0.0,67,0.00,CLR,,0.00,WeatherDisplay:10.37,2013-09-22 05:57:00,
2013-09-22 01:02:00,62.5,51.4,29.80,NNE,24,0.0,0.0,67,0.00,CLR,,0.00,WeatherDisplay:10.37,2013-09-22 06:02:00,
2013-09-22 01:07:00,62.4,51.3,29.80,NNE,24,0.0,0.0,67,0.00,CLR,,0.00,WeatherDisplay:10.37,2013-09-22 06:07:00,
2013-09-22 01:12:00,62.3,51.2,29.80,NNE,24,0.0,0.0,67,0.00,CLR,,0.00,WeatherDisplay:10.37,2013-09-22 06:12:00,
2013-09-22 01:17:00,62.3,51.2,29.80,NNE,24,0.0,0.0,67,0.00,CLR,,0.00,WeatherDisplay:10.37,2013-09-22 06:17:00,
2013-09-22 01:22:00,62.2,51.1,29.80,NNE,24,0.0,0.0,67,0.00,CLR,,0.00,WeatherDisplay:10.37,2013-09-22 06:22:00,
2013-09-22 01:27:00,62.2,51.5,29.80,NNE,24,0.0,0.0,68,0.00,CLR,,0.00,WeatherDisplay:10.37,2013-09-22 06:27:00,
2013-09-22 01:32:00,62.1,51.4,29.80,NNE,24,0.0,0.0,68,0.00,CLR,,0.00,WeatherDisplay:10.37,2013-09-22 06:32:00,
2013-09-22 01:37:00,62.1,51.4,29.80,NNE,24,0.0,0.0,68,0.00,CLR,,0.00,WeatherDisplay:10.37,2013-09-22 06:37:00,
2013-09-22 01:42:00,61.9,51.2,29.80,NNE,24,0.0,0.0,68,0.00,CLR,,0.00,WeatherDisplay:10.37,2013-09-22 06:42:00,
2013-09-22 01:47:00,61.8,51.1,29.80,NNE,24,0.0,0.0,68,0.00,CLR,,0.00,WeatherDisplay:10.37,2013-09-22 06:47:00,
2013-09-22 01:52:00,61.7,51.4,29.80,NNE,24,0.0,0.0,69,0.00,CLR,,0.00,WeatherDisplay:10.37,2013-09-22 06:52:00,
2013-09-22 01:57:00,61.6,51.7,29.80,NNE,24,0.0,0.0,70,0.00,CLR,,0.00,WeatherDisplay:10.37,2013-09-22 06:57:00,
2013-09-22 02:02:00,61.5,51.6,29.80,NNE,24,0.0,0.0,70,0.00,CLR,,0.00,WeatherDisplay:10.37,2013-09-22 07:02:00,
2013-09-22 02:07:00,61.4,51.5,29.80,NNE,24,0.0,0.0,70,0.00,CLR,,0.00,WeatherDisplay:10.37,2013-09-22 07:07:00,
2013-09-22 02:12:00,61.4,51.5,29.80,NNE,24,0.0,0.0,70,0.00,CLR,,0.00,WeatherDisplay:10.37,2013-09-22 07:12:00,
2013-09-22 02:17:00,61.4,51.1,29.80,NNE,24,0.0,0.0,69,0.00,CLR,,0.00,WeatherDisplay:10.37,2013-09-22 07:17:00,
2013-09-22 02:22:00,61.3,51.0,29.80,NNE,24,0.0,0.0,69,0.00,CLR,,0.00,WeatherDisplay:10.37,2013-09-22 07:22:00,
2013-09-22 02:27:00,61.3,51.0,29.80,NNE,24,0.0,0.0,69,0.00,CLR,,0.00,WeatherDisplay:10.37,2013-09-22 07:27:00,
2013-09-22 02:32:00,61.3,51.0,29.80,NNE,24,0.0,0.0,69,0.00,CLR,,0.00,WeatherDisplay:10.37,2013-09-22 07:32:00,
2013-09-22 02:37:00,61.3,50.6,29.80,NNE,24,0.0,0.0,68,0.00,CLR,,0.00,WeatherDisplay:10.37,2013-09-22 07:37:00,
2013-09-22 02:42:00,61.4,50.7,29.80,NNE,24,0.0,0.0,68,0.00,CLR,,0.00,WeatherDisplay:10.37,2013-09-22 07:42:00,
2013-09-22 02:47:00,61.4,50.3,29.80,NNE,24,0.0,0.0,67,0.00,CLR,,0.00,WeatherDisplay:10.37,2013-09-22 07:47:00,
2013-09-22 02:52:00,61.5,50.4,29.80,NNE,24,0.0,0.0,67,0.00,CLR,,0.00,WeatherDisplay:10.37,2013-09-22 07:52:00,
2013-09-22 02:57:00,61.6,50.5,29.80,NNE,24,0.0,0.0,67,0.00,CLR,,0.00,WeatherDisplay:10.37,2013-09-22 07:57:00,
2013-09-22 03:02:00,61.7,50.6,29.79,NNE,24,0.0,0.0,67,0.00,CLR,,0.00,WeatherDisplay:10.37,2013-09-22 08:02:00,
2013-09-22 03:07:00,61.8,50.7,29.79,NNE,24,0.0,0.0,67,0.00,CLR,,0.00,WeatherDisplay:10.37,2013-09-22 08:07:00,
2013-09-22 03:12:00,61.8,50.7,29.79,NNE,24,0.0,0.0,67,0.00,CLR,,0.00,WeatherDisplay:10.37,2013-09-22 08:12:00,
2013-09-22 03:17:00,61.7,50.2,29.79,NNE,24,0.0,0.0,66,0.00,CLR,,0.00,WeatherDisplay:10.37,2013-09-22 08:17:00,
2013-09-22 03:22:00,61.7,50.6,29.79,NNE,24,0.0,0.0,67,0.00,CLR,,0.00,WeatherDisplay:10.37,2013-09-22 08:22:00,
2013-09-22 03:27:00,61.7,50.6,29.79,NNE,24,0.0,0.0,67,0.00,CLR,,0.00,WeatherDisplay:10.37,2013-09-22 08:27:00,
2013-09-22 03:32:00,61.6,50.5,29.79,NNE,24,0.0,0.0,67,0.00,CLR,,0.00,WeatherDisplay:10.37,2013-09-22 08:32:00,
2013-09-22 03:37:00,61.6,50.5,29.79,NNE,24,0.0,0.0,67,0.00,CLR,,0.00,WeatherDisplay:10.37,2013-09-22 08:37:00,
2013-09-22 03:42:00,61.5,50.4,29.78,NNE,24,0.0,0.0,67,0.00,CLR,,0.00,WeatherDisplay:10.37,2013-09-22 08:42:00,
2013-09-22 03:47:00,61.5,50.4,29.78,NNE,24,0.0,0.0,67,0.00,CLR,,0.00,WeatherDisplay:10.37,2013-09-22 08:47:00,
2013-09-22 03:52:00,61.4,50.3,29.78,NNE,24,0.0,0.0,67,0.00,CLR,,0.00,WeatherDisplay:10.37,2013-09-22 08:52:00,
2013-09-22 03:57:00,61.3,50.2,29.78,NNE,24,0.0,0.0,67,0.00,CLR,,0.00,WeatherDisplay:10.37,2013-09-22 08:57:00,
2013-09-22 04:02:00,61.3,50.6,29.78,NNE,24,0.0,0.0,68,0.00,CLR,,0.00,WeatherDisplay:10.37,2013-09-22 09:02:00,
2013-09-22 04:07:00,61.2,50.6,29.78,NNE,24,0.0,0.0,68,0.00,CLR,,0.00,WeatherDisplay:10.37,2013-09-22 09:07:00,
2013-09-22 04:12:00,61.2,50.6,29.78,NNE,24,0.0,0.0,68,0.00,CLR,,0.00,WeatherDisplay:10.37,2013-09-22 09:12:00,
2013-09-22 04:17:00,61.1,50.5,29.78,NNE,24,0.0,0.0,68,0.00,CLR,,0.00,WeatherDisplay:10.37,2013-09-22 09:17:00,
2013-09-22 04:22:00,61.0,50.4,29.78,NNE,24,0.0,0.0,68,0.00,CLR,,0.00,WeatherDisplay:10.37,2013-09-22 09:22:00,
2013-09-22 04:27:00,61.0,50.8,29.78,NNE,24,0.0,0.0,69,0.00,CLR,,0.00,WeatherDisplay:10.37,2013-09-22 09:27:00,
2013-09-22 04:32:00,61.0,50.8,29.78,NNE,24,0.0,0.0,69,0.00,CLR,,0.00,WeatherDisplay:10.37,2013-09-22 09:32:00,
2013-09-22 04:37:00,60.9,50.7,29.78,NNE,24,0.0,0.0,69,0.00,CLR,,0.00,WeatherDisplay:10.37,2013-09-22 09:37:00,
2013-09-22 04:42:00,60.9,51.4,29.79,NNE,24,0.0,0.0,71,0.00,CLR,,0.00,WeatherDisplay:10.37,2013-09-22 09:42:00,
2013-09-22 04:47:00,60.8,51.0,29.79,NNE,24,0.0,0.0,70,0.00,CLR,,0.00,WeatherDisplay:10.37,2013-09-22 09:47:00,
2013-09-22 04:52:00,60.6,51.1,29.78,NNE,24,0.0,0.0,71,0.00,CLR,,0.00,WeatherDisplay:10.37,2013-09-22 09:52:00,
2013-09-22 04:57:00,60.5,51.0,29.78,NNE,24,0.0,0.0,71,0.00,CLR,,0.00,WeatherDisplay:10.37,2013-09-22 09:57:00,
2013-09-22 05:02:00,60.4,51.3,29.78,NNE,24,0.0,0.0,72,0.00,CLR,,0.00,WeatherDisplay:10.37,2013-09-22 10:02:00,
2013-09-22 05:07:00,60.3,51.2,29.79,NNE,24,0.0,0.0,72,0.00,CLR,,0.00,WeatherDisplay:10.37,2013-09-22 10:07:00,
2013-09-22 05:12:00,60.3,50.9,29.79,NNE,24,0.0,0.0,71,0.00,CLR,,0.00,WeatherDisplay:10.37,2013-09-22 10:12:00,
2013-09-22 05:17:00,60.3,50.9,29.79,NNE,24,0.0,0.0,71,0.00,CLR,,0.00,WeatherDisplay:10.37,2013-09-22 10:17:00,
2013-09-22 05:22:00,60.4,51.0,29.79,NNE,24,0.0,1.2,71,0.00,CLR,,0.00,WeatherDisplay:10.37,2013-09-22 10:22:00,
2013-09-22 05:27:00,60.5,50.7,29.79,NNE,24,0.0,0.0,70,0.00,CLR,,0.00,WeatherDisplay:10.37,2013-09-22 10:27:00,
2013-09-22 05:32:00,60.5,51.0,29.79,NNE,24,0.0,0.0,71,0.00,CLR,,0.00,WeatherDisplay:10.37,2013-09-22 10:32:00,
2013-09-22 05:37:00,60.6,50.8,29.79,NNE,24,0.0,0.0,70,0.00,CLR,,0.00,WeatherDisplay:10.37,2013-09-22 10:37:00,
2013-09-22 05:42:00,60.7,51.2,29.79,NNE,24,0.0,0.0,71,0.00,CLR,,0.00,WeatherDisplay:10.37,2013-09-22 10:42:00,
2013-09-22 05:47:00,60.7,51.2,29.79,NNE,24,0.0,0.0,71,0.00,CLR,,0.00,WeatherDisplay:10.37,2013-09-22 10:47:00,
2013-09-22 05:52:00,60.6,51.1,29.79,NNE,24,0.0,0.0,71,0.00,CLR,,0.00,WeatherDisplay:10.37,2013-09-22 10:52:00,
2013-09-22 05:57:00,60.4,51.0,29.79,NNE,24,0.0,0.0,71,0.00,CLR,,0.00,WeatherDisplay:10.37,2013-09-22 10:57:00,
2013-09-22 06:02:00,60.3,51.2,29.79,NNE,24,0.0,0.0,72,0.00,CLR,,0.00,WeatherDisplay:10.37,2013-09-22 11:02:00,
2013-09-22 06:07:00,60.2,51.1,29.79,NNE,24,0.0,1.2,72,0.00,CLR,,0.00,WeatherDisplay:10.37,2013-09-22 11:07:00,
2013-09-22 06:12:00,60.1,51.0,29.79,NNE,24,0.0,0.0,72,0.00,CLR,,0.00,WeatherDisplay:10.37,2013-09-22 11:12:00,
2013-09-22 06:17:00,60.0,51.3,29.79,NNE,24,0.0,0.0,73,0.00,CLR,,0.00,WeatherDisplay:10.37,2013-09-22 11:17:00,
2013-09-22 06:22:00,60.0,51.3,29.79,NNE,24,0.0,0.0,73,0.00,CLR,,0.00,WeatherDisplay:10.37,2013-09-22 11:22:00,
2013-09-22 06:27:00,59.9,51.2,29.79,NNE,24,0.0,0.0,73,0.00,CLR,,0.00,WeatherDisplay:10.37,2013-09-22 11:27:00,
2013-09-22 06:32:00,59.8,51.5,29.79,NNE,24,0.0,0.0,74,0.00,CLR,,0.00,WeatherDisplay:10.37,2013-09-22 11:32:00,
2013-09-22 06:37:00,59.7,51.4,29.79,NNE,24,0.0,0.0,74,0.00,CLR,,0.00,WeatherDisplay:10.37,2013-09-22 11:37:00,
2013-09-22 06:42:00,59.6,51.3,29.79,NNE,24,0.0,0.0,74,0.00,CLR,,0.00,WeatherDisplay:10.37,2013-09-22 11:42:00,
2013-09-22 06:48:00,59.5,51.2,29.79,NNE,24,0.0,0.0,74,0.00,CLR,,0.00,WeatherDisplay:10.37,2013-09-22 11:48:00,
2013-09-22 06:53:00,59.4,51.8,29.80,NNE,24,0.0,0.0,76,0.00,CLR,,0.00,WeatherDisplay:10.37,2013-09-22 11:53:00,
2013-09-22 06:58:00,59.3,51.7,29.80,NNE,24,0.0,0.0,76,0.00,CLR,,0.00,WeatherDisplay:10.37,2013-09-22 11:58:00,
2013-09-22 07:03:00,59.1,51.5,29.80,NNE,24,0.0,0.0,76,0.00,CLR,,0.00,WeatherDisplay:10.37,2013-09-22 12:03:00,
2013-09-22 07:08:00,59.0,51.4,29.80,NNE,24,0.0,0.0,76,0.00,CLR,,0.00,WeatherDisplay:10.37,2013-09-22 12:08:00,
2013-09-22 07:13:00,58.9,51.3,29.80,NNE,24,0.0,0.0,76,0.00,CLR,,0.00,WeatherDisplay:10.37,2013-09-22 12:13:00,
2013-09-22 07:18:00,58.9,51.3,29.80,NNE,24,0.0,0.0,76,0.00,CLR,,0.00,WeatherDisplay:10.37,2013-09-22 12:18:00,
2013-09-22 07:23:00,58.8,51.2,29.80,NNE,24,0.0,0.0,76,0.00,CLR,,0.00,WeatherDisplay:10.37,2013-09-22 12:23:00,
2013-09-22 07:28:00,58.8,51.6,29.80,NNE,24,0.0,0.0,77,0.00,CLR,,0.00,WeatherDisplay:10.37,2013-09-22 12:28:00,
2013-09-22 07:33:00,58.8,51.6,29.80,NNE,24,0.0,0.0,77,0.00,CLR,,0.00,WeatherDisplay:10.37,2013-09-22 12:33:00,
2013-09-22 07:38:00,58.7,51.5,29.80,NNE,24,0.0,0.0,77,0.00,CLR,,0.00,WeatherDisplay:10.37,2013-09-22 12:38:00,
2013-09-22 07:43:00,58.7,51.5,29.80,NNE,24,0.0,0.0,77,0.00,CLR,,0.00,WeatherDisplay:10.37,2013-09-22 12:43:00,
2013-09-22 07:48:00,58.7,51.5,29.81,NNE,24,0.0,0.0,77,0.00,CLR,,0.00,WeatherDisplay:10.37,2013-09-22 12:48:00,
2013-09-22 07:53:00,58.8,52.0,29.81,NNE,24,0.0,0.0,78,0.00,CLR,,0.00,WeatherDisplay:10.37,2013-09-22 12:53:00,
2013-09-22 07:58:00,58.9,52.1,29.81,NNE,24,0.0,0.0,78,0.00,CLR,,0.00,WeatherDisplay:10.37,2013-09-22 12:58:00,
2013-09-22 08:03:00,59.0,52.1,29.81,NNE,24,0.0,0.0,78,0.00,CLR,,0.00,WeatherDisplay:10.37,2013-09-22 13:03:00,
2013-09-22 08:08:00,59.2,52.3,29.81,NNE,24,0.0,0.0,78,0.00,CLR,,0.00,WeatherDisplay:10.37,2013-09-22 13:08:00,
2013-09-22 08:13:00,59.5,52.6,29.81,NNE,24,0.0,0.0,78,0.00,CLR,,0.00,WeatherDisplay:10.37,2013-09-22 13:13:00,
2013-09-22 08:18:00,59.8,52.9,29.81,NNE,24,0.0,0.0,78,0.00,CLR,,0.00,WeatherDisplay:10.37,2013-09-22 13:18:00,
2013-09-22 08:23:00,60.1,52.9,29.82,NNE,24,0.0,0.0,77,0.00,CLR,,0.00,WeatherDisplay:10.37,2013-09-22 13:23:00,
2013-09-22 08:28:00,60.5,53.3,29.82,NNE,24,0.0,0.0,77,0.00,CLR,,0.00,WeatherDisplay:10.37,2013-09-22 13:28:00,
2013-09-22 08:33:00,61.0,53.4,29.82,NNE,24,0.0,1.2,76,0.00,CLR,,0.00,WeatherDisplay:10.37,2013-09-22 13:33:00,
2013-09-22 08:38:00,61.5,53.9,29.82,NNE,24,0.0,0.0,76,0.00,CLR,,0.00,WeatherDisplay:10.37,2013-09-22 13:38:00,
2013-09-22 08:43:00,61.9,54.2,29.82,East,100,0.2,2.3,76,0.00,CLR,,0.00,WeatherDisplay:10.37,2013-09-22 13:43:00,
2013-09-22 08:48:00,62.5,54.5,29.82,West,265,0.0,0.0,75,0.00,CLR,,0.00,WeatherDisplay:10.37,2013-09-22 13:48:00,
2013-09-22 08:53:00,63.3,54.5,29.82,West,265,0.0,0.0,73,0.00,CLR,,0.00,WeatherDisplay:10.37,2013-09-22 13:53:00,
2013-09-22 08:58:00,64.3,54.7,29.83,ENE,67,0.7,1.2,71,0.00,CLR,,0.00,WeatherDisplay:10.37,2013-09-22 13:58:00,
2013-09-22 09:03:00,65.3,54.5,29.83,ENE,71,0.2,2.3,68,0.00,CLR,,0.00,WeatherDisplay:10.37,2013-09-22 14:03:00,
2013-09-22 09:08:00,65.9,54.6,29.83,NNE,28,0.3,2.3,67,0.00,CLR,,0.00,WeatherDisplay:10.37,2013-09-22 14:08:00,
2013-09-22 09:13:00,66.5,54.8,29.83,NE,49,0.3,1.2,66,0.00,CLR,,0.00,WeatherDisplay:10.37,2013-09-22 14:13:00,
2013-09-22 09:18:00,66.9,55.2,29.83,ENE,63,0.1,1.2,66,0.00,CLR,,0.00,WeatherDisplay:10.37,2013-09-22 14:18:00,
2013-09-22 09:23:00,67.3,55.1,29.83,NE,52,0.5,2.3,65,0.00,CLR,,0.00,WeatherDisplay:10.37,2013-09-22 14:23:00,
2013-09-22 09:28:00,67.7,55.5,29.83,NE,48,0.0,0.0,65,0.00,CLR,,0.00,WeatherDisplay:10.37,2013-09-22 14:28:00,
2013-09-22 09:33:00,68.2,55.6,29.83,East,86,0.6,2.3,64,0.00,CLR,,0.00,WeatherDisplay:10.37,2013-09-22 14:33:00,
2013-09-22 09:38:00,68.7,55.6,29.83,East,80,0.9,3.5,63,0.00,CLR,,0.00,WeatherDisplay:10.37,2013-09-22 14:38:00,
2013-09-22 09:43:00,69.0,55.4,29.84,ENE,68,0.4,3.5,62,0.00,CLR,,0.00,WeatherDisplay:10.37,2013-09-22 14:43:00,
2013-09-22 09:48:00,69.4,55.8,29.84,NE,37,1.0,6.9,62,0.00,CLR,,0.00,WeatherDisplay:10.37,2013-09-22 14:48:00,
2013-09-22 09:53:00,69.8,56.2,29.84,East,94,0.0,0.0,62,0.00,CLR,,0.00,WeatherDisplay:10.37,2013-09-22 14:53:00,
2013-09-22 09:58:00,70.1,56.0,29.84,ENE,60,0.0,1.2,61,0.00,CLR,,0.00,WeatherDisplay:10.37,2013-09-22 14:58:00,
2013-09-22 10:03:00,70.4,55.8,29.84,East,88,0.9,5.8,60,0.00,CLR,,0.00,WeatherDisplay:10.37,2013-09-22 15:03:00,
2013-09-22 10:08:00,71.0,56.4,29.84,North,355,0.2,2.3,60,0.00,CLR,,0.00,WeatherDisplay:10.37,2013-09-22 15:08:00,
2013-09-22 10:13:00,71.4,55.9,29.84,NNE,21,1.0,4.6,58,0.00,CLR,,0.00,WeatherDisplay:10.37,2013-09-22 15:13:00,
2013-09-22 10:18:00,71.6,56.5,29.84,ENE,64,0.3,3.5,59,0.00,CLR,,0.00,WeatherDisplay:10.37,2013-09-22 15:18:00,
2013-09-22 10:23:00,72.0,55.9,29.85,ENE,64,0.5,3.5,57,0.00,CLR,,0.00,WeatherDisplay:10.37,2013-09-22 15:23:00,
2013-09-22 10:28:00,72.2,56.1,29.85,North,360,0.4,2.3,57,0.00,CLR,,0.00,WeatherDisplay:10.37,2013-09-22 15:28:00,
2013-09-22 10:33:00,72.7,56.6,29.85,ENE,62,1.1,2.3,57,0.00,CLR,,0.00,WeatherDisplay:10.37,2013-09-22 15:33:00,
2013-09-22 10:38:00,73.0,55.9,29.85,ENE,78,0.6,5.8,55,0.00,CLR,,0.00,WeatherDisplay:10.37,2013-09-22 15:38:00,
2013-09-22 10:43:00,73.2,55.6,29.85,North,355,1.3,3.5,54,0.00,CLR,,0.00,WeatherDisplay:10.37,2013-09-22 15:43:00,
2013-09-22 10:48:00,73.4,56.2,29.85,North,355,0.7,4.0,55,0.00,CLR,,0.00,WeatherDisplay:10.37,2013-09-22 15:48:00,
2013-09-22 10:53:00,73.7,56.0,29.85,NE,46,1.0,3.5,54,0.00,CLR,,0.00,WeatherDisplay:10.37,2013-09-22 15:53:00,
2013-09-22 10:58:00,73.8,55.6,29.84,North,5,0.9,2.0,53,0.00,CLR,,0.00,WeatherDisplay:10.37,2013-09-22 15:58:00,
2013-09-22 11:03:00,74.0,55.8,29.84,East,89,1.5,5.8,53,0.00,CLR,,0.00,WeatherDisplay:10.37,2013-09-22 16:03:00,
2013-09-22 11:09:00,74.3,55.5,29.84,East,89,0.0,6.9,52,0.00,CLR,,0.00,WeatherDisplay:10.37,2013-09-22 16:09:00,
2013-09-22 11:14:00,74.7,55.9,29.84,East,82,0.6,1.2,52,0.00,CLR,,0.00,WeatherDisplay:10.37,2013-09-22 16:14:00,
2013-09-22 11:19:00,74.8,54.9,29.84,North,5,1.2,3.5,50,0.00,CLR,,0.00,WeatherDisplay:10.37,2013-09-22 16:19:00,
2013-09-22 11:24:00,74.9,55.6,29.84,North,9,0.8,3.5,51,0.00,CLR,,0.00,WeatherDisplay:10.37,2013-09-22 16:24:00,
2013-09-22 11:29:00,75.2,55.3,29.84,North,355,0.0,2.3,50,0.00,CLR,,0.00,WeatherDisplay:10.37,2013-09-22 16:29:00,
2013-09-22 11:34:00,75.5,56.1,29.84,NE,55,2.4,5.8,51,0.00,CLR,,0.00,WeatherDisplay:10.37,2013-09-22 16:34:00,
2013-09-22 11:39:00,75.7,55.7,29.83,NNW,337,0.7,2.3,50,0.00,CLR,,0.00,WeatherDisplay:10.37,2013-09-22 16:39:00,
2013-09-22 11:44:00,75.8,54.7,29.83,North,5,0.5,3.5,48,0.00,CLR,,0.00,WeatherDisplay:10.37,2013-09-22 16:44:00,
2013-09-22 11:49:00,76.0,55.5,29.83,North,360,2.1,3.5,49,0.00,CLR,,0.00,WeatherDisplay:10.37,2013-09-22 16:49:00,
2013-09-22 11:54:00,76.2,55.1,29.83,ENE,67,0.9,2.3,48,0.00,CLR,,0.00,WeatherDisplay:10.37,2013-09-22 16:54:00,
2013-09-22 11:59:00,76.4,54.7,29.83,ENE,58,0.5,2.0,47,0.00,CLR,,0.00,WeatherDisplay:10.37,2013-09-22 16:59:00,
2013-09-22 12:04:00,76.7,54.4,29.83,NE,40,0.0,1.2,46,0.00,CLR,,0.00,WeatherDisplay:10.37,2013-09-22 17:04:00,
2013-09-22 12:09:00,77.0,55.2,29.83,ENE,61,0.3,2.3,47,0.00,CLR,,0.00,WeatherDisplay:10.37,2013-09-22 17:09:00,
2013-09-22 12:14:00,77.3,54.3,29.83,NNW,340,1.1,6.0,45,0.00,CLR,,0.00,WeatherDisplay:10.37,2013-09-22 17:14:00,
2013-09-22 12:19:00,77.7,55.3,29.83,North,11,1.1,4.6,46,0.00,CLR,,0.00,WeatherDisplay:10.37,2013-09-22 17:19:00,
2013-09-22 12:24:00,78.0,54.9,29.83,East,93,1.3,2.3,45,0.00,CLR,,0.00,WeatherDisplay:10.37,2013-09-22 17:24:00,
2013-09-22 12:29:00,78.2,55.1,29.82,NE,34,0.7,1.2,45,0.00,CLR,,0.00,WeatherDisplay:10.37,2013-09-22 17:29:00,
2013-09-22 12:34:00,78.5,54.8,29.82,NE,52,0.4,4.6,44,0.00,CLR,,0.00,WeatherDisplay:10.37,2013-09-22 17:34:00,
2013-09-22 12:39:00,78.9,55.1,29.82,ENE,67,1.6,5.8,44,0.00,CLR,,0.00,WeatherDisplay:10.37,2013-09-22 17:39:00,
2013-09-22 12:44:00,79.1,54.7,29.82,NNE,29,0.6,1.2,43,0.00,CLR,,0.00,WeatherDisplay:10.37,2013-09-22 17:44:00,
2013-09-22 12:49:00,79.4,55.0,29.82,NE,55,0.8,3.5,43,0.00,CLR,,0.00,WeatherDisplay:10.37,2013-09-22 17:49:00,
2013-09-22 12:54:00,79.6,56.4,29.82,North,5,0.7,2.3,45,0.00,CLR,,0.00,WeatherDisplay:10.37,2013-09-22 17:54:00,
2013-09-22 13:00:00,79.8,54.7,29.81,East,98,2.4,6.0,42,0.00,CLR,,0.00,WeatherDisplay:10.37,2013-09-22 18:00:00,
2013-09-22 13:05:00,80.0,54.2,29.81,East,101,0.7,2.3,41,0.00,CLR,,0.00,WeatherDisplay:10.37,2013-09-22 18:05:00,
2013-09-22 13:10:00,80.2,55.0,29.81,NNE,24,1.5,3.5,42,0.00,CLR,,0.00,WeatherDisplay:10.37,2013-09-22 18:10:00,
2013-09-22 13:15:00,80.5,55.3,29.81,NE,46,1.0,3.5,42,0.00,CLR,,0.00,WeatherDisplay:10.37,2013-09-22 18:15:00,
2013-09-22 13:20:00,80.8,54.9,29.81,NE,43,1.1,3.5,41,0.00,CLR,,0.00,WeatherDisplay:10.37,2013-09-22 18:20:00,
2013-09-22 13:25:00,81.1,55.2,29.80,ENE,59,0.6,3.5,41,0.00,CLR,,0.00,WeatherDisplay:10.37,2013-09-22 18:25:00,
2013-09-22 13:30:00,81.7,55.0,29.80,ENE,63,0.6,3.5,40,0.00,CLR,,0.00,WeatherDisplay:10.37,2013-09-22 18:30:00,
2013-09-22 13:35:00,82.2,54.1,29.80,North,360,0.0,2.3,38,0.00,CLR,,0.00,WeatherDisplay:10.37,2013-09-22 18:35:00,
2013-09-22 13:40:00,82.5,53.6,29.80,ENE,58,0.9,3.5,37,0.00,CLR,,0.00,WeatherDisplay:10.37,2013-09-22 18:40:00,
2013-09-22 13:45:00,82.7,53.8,29.79,NE,46,0.3,2.3,37,0.00,CLR,,0.00,WeatherDisplay:10.37,2013-09-22 18:45:00,
2013-09-22 13:51:00,83.4,52.9,29.79,NNE,15,0.2,3.5,35,0.00,CLR,,0.00,WeatherDisplay:10.37,2013-09-22 18:51:00,
2013-09-22 13:56:00,83.7,53.1,29.79,ENE,77,1.1,3.5,35,0.00,CLR,,0.00,WeatherDisplay:10.37,2013-09-22 18:56:00,
2013-09-22 14:01:00,83.3,51.2,29.78,East,82,2.9,6.9,33,0.00,CLR,,0.00,WeatherDisplay:10.37,2013-09-22 19:01:00,
2013-09-22 14:06:00,83.3,52.0,29.78,North,350,1.1,3.5,34,0.00,CLR,,0.00,WeatherDisplay:10.37,2013-09-22 19:06:00,
2013-09-22 14:11:00,83.4,51.3,29.78,East,80,0.4,4.6,33,0.00,CLR,,0.00,WeatherDisplay:10.37,2013-09-22 19:11:00,
2013-09-22 14:16:00,83.6,51.5,29.78,ENE,74,2.2,4.6,33,0.00,CLR,,0.00,WeatherDisplay:10.37,2013-09-22 19:16:00,
2013-09-22 14:21:00,83.8,52.4,29.78,ENE,65,0.0,1.2,34,0.00,CLR,,0.00,WeatherDisplay:10.37,2013-09-22 19:21:00,
2013-09-22 14:26:00,84.5,53.0,29.77,NNW,333,1.2,3.5,34,0.00,CLR,,0.00,WeatherDisplay:10.37,2013-09-22 19:26:00,
2013-09-22 14:31:00,84.6,52.3,29.77,ENE,58,0.1,1.2,33,0.00,CLR,,0.00,WeatherDisplay:10.37,2013-09-22 19:31:00,
2013-09-22 14:36:00,84.7,52.4,29.77,ENE,73,0.0,1.2,33,0.00,CLR,,0.00,WeatherDisplay:10.37,2013-09-22 19:36:00,
2013-09-22 14:41:00,85.3,49.4,29.77,East,89,0.2,3.5,29,0.00,CLR,,0.00,WeatherDisplay:10.37,2013-09-22 19:41:00,
2013-09-22 14:46:00,85.6,50.6,29.77,East,80,1.4,3.5,30,0.00,CLR,,0.00,WeatherDisplay:10.37,2013-09-22 19:46:00,
2013-09-22 14:51:00,85.4,51.3,29.76,NE,36,0.6,2.3,31,0.00,CLR,,0.00,WeatherDisplay:10.37,2013-09-22 19:51:00,
2013-09-22 14:56:00,85.7,49.8,29.76,ENE,67,1.3,3.5,29,0.00,CLR,,0.00,WeatherDisplay:10.37,2013-09-22 19:56:00,
2013-09-22 15:01:00,86.3,51.2,29.76,East,88,0.6,3.5,30,0.00,CLR,,0.00,WeatherDisplay:10.37,2013-09-22 20:01:00,
2013-09-22 15:06:00,86.8,51.6,29.75,ESE,120,0.7,1.2,30,0.00,CLR,,0.00,WeatherDisplay:10.37,2013-09-22 20:06:00,
2013-09-22 15:11:00,86.7,51.6,29.75,NE,49,0.0,0.0,30,0.00,CLR,,0.00,WeatherDisplay:10.37,2013-09-22 20:11:00,
2013-09-22 15:16:00,86.7,50.6,29.75,East,101,0.6,1.2,29,0.00,CLR,,0.00,WeatherDisplay:10.37,2013-09-22 20:16:00,
2013-09-22 15:21:00,86.7,51.6,29.75,ENE,59,0.1,1.2,30,0.00,CLR,,0.00,WeatherDisplay:10.37,2013-09-22 20:21:00,
2013-09-22 15:26:00,86.8,48.8,29.75,ESE,103,0.3,1.2,27,0.00,CLR,,0.00,WeatherDisplay:10.37,2013-09-22 20:26:00,
2013-09-22 15:31:00,87.0,50.0,29.75,North,360,0.1,2.0,28,0.00,CLR,,0.00,WeatherDisplay:10.37,2013-09-22 20:31:00,
2013-09-22 15:36:00,86.9,48.9,29.75,North,9,0.0,1.2,27,0.00,CLR,,0.00,WeatherDisplay:10.37,2013-09-22 20:36:00,
2013-09-22 15:41:00,86.6,49.6,29.74,East,98,0.4,4.6,28,0.00,CLR,,0.00,WeatherDisplay:10.37,2013-09-22 20:41:00,
2013-09-22 15:46:00,86.5,48.5,29.74,ENE,71,0.7,4.6,27,0.00,CLR,,0.00,WeatherDisplay:10.37,2013-09-22 20:46:00,
2013-09-22 15:51:00,86.3,48.4,29.74,NE,34,0.1,1.2,27,0.00,CLR,,0.00,WeatherDisplay:10.37,2013-09-22 20:51:00,
2013-09-22 15:56:00,86.5,49.5,29.74,ESE,103,0.6,3.5,28,0.00,CLR,,0.00,WeatherDisplay:10.37,2013-09-22 20:56:00,
2013-09-22 16:01:00,86.7,47.7,29.73,NNW,334,0.0,1.2,26,0.00,CLR,,0.00,WeatherDisplay:10.37,2013-09-22 21:01:00,
2013-09-22 16:06:00,86.6,48.6,29.73,ENE,60,0.1,3.5,27,0.00,CLR,,0.00,WeatherDisplay:10.37,2013-09-22 21:06:00,
2013-09-22 16:11:00,86.4,50.4,29.73,ENE,70,0.8,3.0,29,0.00,CLR,,0.00,WeatherDisplay:10.37,2013-09-22 21:11:00,
2013-09-22 16:16:00,86.4,50.4,29.73,NE,52,0.9,3.5,29,0.00,CLR,,0.00,WeatherDisplay:10.37,2013-09-22 21:16:00,
2013-09-22 16:21:00,86.3,47.4,29.73,NE,36,1.5,4.0,26,0.00,CLR,,0.00,WeatherDisplay:10.37,2013-09-22 21:21:00,
2013-09-22 16:26:00,86.3,49.4,29.72,ENE,77,0.1,1.2,28,0.00,CLR,,0.00,WeatherDisplay:10.37,2013-09-22 21:26:00,
2013-09-22 16:31:00,86.8,49.8,29.72,NNE,32,0.2,1.2,28,0.00,CLR,,0.00,WeatherDisplay:10.37,2013-09-22 21:31:00,
2013-09-22 16:36:00,86.8,50.7,29.72,NE,55,1.2,5.0,29,0.00,CLR,,0.00,WeatherDisplay:10.37,2013-09-22 21:36:00,
2013-09-22 16:41:00,86.8,50.7,29.72,ENE,61,0.9,4.6,29,0.00,CLR,,0.00,WeatherDisplay:10.37,2013-09-22 21:41:00,
2013-09-22 16:46:00,86.9,49.9,29.72,NE,44,0.2,4.0,28,0.00,CLR,,0.00,WeatherDisplay:10.37,2013-09-22 21:46:00,
2013-09-22 16:51:00,86.8,49.8,29.72,North,5,0.3,3.5,28,0.00,CLR,,0.00,WeatherDisplay:10.37,2013-09-22 21:51:00,
2013-09-22 16:57:00,86.7,49.7,29.72,NNW,346,1.0,3.0,28,0.00,CLR,,0.00,WeatherDisplay:10.37,2013-09-22 21:57:00,
2013-09-22 17:02:00,86.5,49.5,29.72,ENE,75,0.7,1.2,28,0.00,CLR,,0.00,WeatherDisplay:10.37,2013-09-22 22:02:00,
2013-09-22 17:07:00,86.2,49.3,29.72,East,85,0.0,2.3,28,0.00,CLR,,0.00,WeatherDisplay:10.37,2013-09-22 22:07:00,
2013-09-22 17:12:00,86.0,49.1,29.72,ENE,59,0.7,2.3,28,0.00,CLR,,0.00,WeatherDisplay:10.37,2013-09-22 22:12:00,
2013-09-22 17:17:00,86.0,48.1,29.71,NE,36,0.0,0.0,27,0.00,CLR,,0.00,WeatherDisplay:10.37,2013-09-22 22:17:00,
2013-09-22 17:22:00,86.1,49.2,29.71,NE,51,0.1,1.2,28,0.00,CLR,,0.00,WeatherDisplay:10.37,2013-09-22 22:22:00,
2013-09-22 17:27:00,86.1,49.2,29.71,ENE,61,0.7,2.3,28,0.00,CLR,,0.00,WeatherDisplay:10.37,2013-09-22 22:27:00,
2013-09-22 17:32:00,85.9,49.0,29.72,NNE,30,0.0,0.0,28,0.00,CLR,,0.00,WeatherDisplay:10.37,2013-09-22 22:32:00,
2013-09-22 17:37:00,86.0,50.0,29.72,NE,41,0.0,0.0,29,0.00,CLR,,0.00,WeatherDisplay:10.37,2013-09-22 22:37:00,
2013-09-22 17:42:00,86.1,50.1,29.72,NE,42,0.0,1.0,29,0.00,CLR,,0.00,WeatherDisplay:10.37,2013-09-22 22:42:00,
2013-09-22 17:47:00,85.9,49.0,29.72,ENE,61,0.6,3.5,28,0.00,CLR,,0.00,WeatherDisplay:10.37,2013-09-22 22:47:00,
2013-09-22 17:52:00,85.6,48.8,29.72,NE,56,0.1,1.2,28,0.00,CLR,,0.00,WeatherDisplay:10.37,2013-09-22 22:52:00,
2013-09-22 17:57:00,85.1,48.3,29.72,NE,51,0.9,3.0,28,0.00,CLR,,0.00,WeatherDisplay:10.37,2013-09-22 22:57:00,
2013-09-22 18:02:00,84.6,46.9,29.72,NE,43,0.0,0.0,27,0.00,CLR,,0.00,WeatherDisplay:10.37,2013-09-22 23:02:00,
2013-09-22 18:07:00,84.4,47.7,29.71,NNE,18,0.0,1.2,28,0.00,CLR,,0.00,WeatherDisplay:10.37,2013-09-22 23:07:00,
2013-09-22 18:12:00,84.2,47.6,29.72,NNE,15,0.0,1.2,28,0.00,CLR,,0.00,WeatherDisplay:10.37,2013-09-22 23:12:00,
2013-09-22 18:17:00,83.9,49.1,29.71,NNE,15,0.0,0.0,30,0.00,CLR,,0.00,WeatherDisplay:10.37,2013-09-22 23:17:00,
2013-09-22 18:22:00,83.5,49.7,29.71,NE,36,0.0,1.2,31,0.00,CLR,,0.00,WeatherDisplay:10.37,2013-09-22 23:22:00,
2013-09-22 18:27:00,83.1,48.5,29.71,NE,48,0.1,1.2,30,0.00,CLR,,0.00,WeatherDisplay:10.37,2013-09-22 23:27:00,
2013-09-22 18:32:00,82.7,47.2,29.72,NE,48,0.2,3.5,29,0.00,CLR,,0.00,WeatherDisplay:10.37,2013-09-22 23:32:00,
2013-09-22 18:37:00,82.4,47.8,29.72,ENE,67,0.0,0.0,30,0.00,CLR,,0.00,WeatherDisplay:10.37,2013-09-22 23:37:00,
2013-09-22 18:42:00,82.2,47.7,29.72,ENE,67,0.0,0.0,30,0.00,CLR,,0.00,WeatherDisplay:10.37,2013-09-22 23:42:00,
2013-09-22 18:47:00,81.9,48.3,29.72,ENE,67,0.0,1.2,31,0.00,CLR,,0.00,WeatherDisplay:10.37,2013-09-22 23:47:00,
2013-09-22 18:52:00,81.7,48.1,29.72,ENE,67,0.0,0.0,31,0.00,CLR,,0.00,WeatherDisplay:10.37,2013-09-22 23:52:00,
2013-09-22 18:57:00,81.3,48.6,29.72,ENE,67,0.0,0.0,32,0.00,CLR,,0.00,WeatherDisplay:10.37,2013-09-22 23:57:00,
2013-09-22 19:02:00,80.9,49.1,29.72,ENE,67,0.0,0.0,33,0.00,CLR,,0.00,WeatherDisplay:10.37,2013-09-23 00:02:00,
2013-09-22 19:07:00,80.5,49.5,29.72,ENE,66,0.0,0.0,34,0.00,CLR,,0.00,WeatherDisplay:10.37,2013-09-23 00:07:00,
2013-09-22 19:12:00,80.4,50.2,29.72,ENE,66,0.0,0.0,35,0.00,CLR,,0.00,WeatherDisplay:10.37,2013-09-23 00:12:00,
2013-09-22 19:17:00,80.2,50.8,29.72,ENE,66,0.0,0.0,36,0.00,CLR,,0.00,WeatherDisplay:10.37,2013-09-23 00:17:00,
2013-09-22 19:22:00,79.9,51.3,29.72,ENE,66,0.0,0.0,37,0.00,CLR,,0.00,WeatherDisplay:10.37,2013-09-23 00:22:00,
2013-09-22 19:27:00,79.5,52.4,29.72,ENE,66,0.0,0.0,39,0.00,CLR,,0.00,WeatherDisplay:10.37,2013-09-23 00:27:00,
2013-09-22 19:32:00,79.0,51.2,29.72,ENE,66,0.0,0.0,38,0.00,CLR,,0.00,WeatherDisplay:10.37,2013-09-23 00:32:00,
2013-09-22 19:37:00,78.6,51.6,29.72,ENE,66,0.0,0.0,39,0.00,CLR,,0.00,WeatherDisplay:10.37,2013-09-23 00:37:00,
2013-09-22 19:42:00,78.0,51.7,29.72,ENE,66,0.0,0.0,40,0.00,CLR,,0.00,WeatherDisplay:10.37,2013-09-23 00:42:00,
2013-09-22 19:47:00,77.5,51.9,29.72,ENE,66,0.0,0.0,41,0.00,CLR,,0.00,WeatherDisplay:10.37,2013-09-23 00:47:00,
2013-09-22 19:52:00,77.0,52.1,29.72,ENE,66,0.0,0.0,42,0.00,CLR,,0.00,WeatherDisplay:10.37,2013-09-23 00:52:00,
2013-09-22 19:57:00,76.4,51.6,29.72,ENE,66,0.0,0.0,42,0.00,CLR,,0.00,WeatherDisplay:10.37,2013-09-23 00:57:00,
2013-09-22 20:02:00,75.8,52.3,29.72,ENE,66,0.0,0.0,44,0.00,CLR,,0.00,WeatherDisplay:10.37,2013-09-23 01:02:00,
2013-09-22 20:07:00,75.2,52.4,29.72,ENE,66,0.0,0.0,45,0.00,CLR,,0.00,WeatherDisplay:10.37,2013-09-23 01:07:00,
2013-09-22 20:12:00,74.6,52.4,29.73,ENE,66,0.0,0.0,46,0.00,CLR,,0.00,WeatherDisplay:10.37,2013-09-23 01:12:00,
2013-09-22 20:17:00,74.0,52.5,29.73,ENE,66,0.0,0.0,47,0.00,CLR,,0.00,WeatherDisplay:10.37,2013-09-23 01:17:00,
2013-09-22 20:22:00,73.5,53.2,29.73,ENE,66,0.0,0.0,49,0.00,CLR,,0.00,WeatherDisplay:10.37,2013-09-23 01:22:00,
2013-09-22 20:27:00,73.0,53.3,29.73,ENE,66,0.0,0.0,50,0.00,CLR,,0.00,WeatherDisplay:10.37,2013-09-23 01:27:00,
2013-09-22 20:32:00,72.5,52.8,29.73,ENE,66,0.0,0.0,50,0.00,CLR,,0.00,WeatherDisplay:10.37,2013-09-23 01:32:00,
2013-09-22 20:37:00,72.1,53.0,29.73,ENE,66,0.0,0.0,51,0.00,CLR,,0.00,WeatherDisplay:10.37,2013-09-23 01:37:00,
2013-09-22 20:42:00,71.6,52.5,29.73,ENE,66,0.0,0.0,51,0.00,CLR,,0.00,WeatherDisplay:10.37,2013-09-23 01:42:00,
2013-09-22 20:47:00,71.0,53.0,29.73,ENE,66,0.0,0.0,53,0.00,CLR,,0.00,WeatherDisplay:10.37,2013-09-23 01:47:00,
2013-09-22 20:52:00,70.4,53.0,29.73,ENE,66,0.0,0.0,54,0.00,CLR,,0.00,WeatherDisplay:10.37,2013-09-23 01:52:00,
2013-09-22 20:57:00,69.7,52.8,29.74,ENE,66,0.0,0.0,55,0.00,CLR,,0.00,WeatherDisplay:10.37,2013-09-23 01:57:00,
2013-09-22 21:02:00,69.1,53.2,29.74,ENE,66,0.0,0.0,57,0.00,CLR,,0.00,WeatherDisplay:10.37,2013-09-23 02:02:00,
2013-09-22 21:07:00,68.5,52.7,29.74,ENE,66,0.0,0.0,57,0.00,CLR,,0.00,WeatherDisplay:10.37,2013-09-23 02:07:00,
2013-09-22 21:12:00,68.1,52.8,29.74,ENE,66,0.0,0.0,58,0.00,CLR,,0.00,WeatherDisplay:10.37,2013-09-23 02:12:00,
2013-09-22 21:17:00,67.8,52.9,29.74,ENE,66,0.0,0.0,59,0.00,CLR,,0.00,WeatherDisplay:10.37,2013-09-23 02:17:00,
2013-09-22 21:22:00,67.4,53.0,29.74,ENE,66,0.0,0.0,60,0.00,CLR,,0.00,WeatherDisplay:10.37,2013-09-23 02:22:00,
2013-09-22 21:27:00,67.1,53.2,29.74,ENE,66,0.0,0.0,61,0.00,CLR,,0.00,WeatherDisplay:10.37,2013-09-23 02:27:00,
2013-09-22 21:32:00,66.8,52.9,29.74,ENE,66,0.0,0.0,61,0.00,CLR,,0.00,WeatherDisplay:10.37,2013-09-23 02:32:00,
2013-09-22 21:37:00,66.6,53.2,29.75,ENE,66,0.0,0.0,62,0.00,CLR,,0.00,WeatherDisplay:10.37,2013-09-23 02:37:00,
2013-09-22 21:42:00,66.4,53.4,29.74,ENE,66,0.0,0.0,63,0.00,CLR,,0.00,WeatherDisplay:10.37,2013-09-23 02:42:00,
2013-09-22 21:47:00,66.1,53.6,29.75,ENE,66,0.0,0.0,64,0.00,CLR,,0.00,WeatherDisplay:10.37,2013-09-23 02:47:00,
2013-09-22 21:52:00,65.8,53.3,29.75,ENE,66,0.0,0.0,64,0.00,CLR,,0.00,WeatherDisplay:10.37,2013-09-23 02:52:00,
2013-09-22 21:57:00,65.6,53.5,29.75,ENE,66,0.0,0.0,65,0.00,CLR,,0.00,WeatherDisplay:10.37,2013-09-23 02:57:00,
2013-09-22 22:02:00,65.4,53.3,29.75,ENE,66,0.0,0.0,65,0.00,CLR,,0.00,WeatherDisplay:10.37,2013-09-23 03:02:00,
2013-09-22 22:07:00,65.2,53.1,29.75,ENE,66,0.0,0.0,65,0.00,CLR,,0.00,WeatherDisplay:10.37,2013-09-23 03:07:00,
2013-09-22 22:12:00,65.1,53.5,29.75,ENE,66,0.0,0.0,66,0.00,CLR,,0.00,WeatherDisplay:10.37,2013-09-23 03:12:00,
2013-09-22 22:17:00,64.9,53.3,29.75,ENE,66,0.0,0.0,66,0.00,CLR,,0.00,WeatherDisplay:10.37,2013-09-23 03:17:00,
2013-09-22 22:22:00,64.7,53.1,29.75,ENE,66,0.0,0.0,66,0.00,CLR,,0.00,WeatherDisplay:10.37,2013-09-23 03:22:00,
2013-09-22 22:27:00,64.5,53.3,29.75,ENE,66,0.0,0.0,67,0.00,CLR,,0.00,WeatherDisplay:10.37,2013-09-23 03:27:00,
2013-09-22 22:32:00,64.4,53.2,29.75,ENE,66,0.0,0.0,67,0.00,CLR,,0.00,WeatherDisplay:10.37,2013-09-23 03:32:00,
2013-09-22 22:37:00,64.2,53.4,29.75,ENE,66,0.0,0.0,68,0.00,CLR,,0.00,WeatherDisplay:10.37,2013-09-23 03:37:00,
2013-09-22 22:42:00,64.0,53.2,29.75,ENE,66,0.0,0.0,68,0.00,CLR,,0.00,WeatherDisplay:10.37,2013-09-23 03:42:00,
2013-09-22 22:47:00,63.8,53.4,29.75,ENE,66,0.0,0.0,69,0.00,CLR,,0.00,WeatherDisplay:10.37,2013-09-23 03:47:00,
2013-09-22 22:52:00,63.6,53.6,29.75,ENE,66,0.0,0.0,70,0.00,CLR,,0.00,WeatherDisplay:10.37,2013-09-23 03:52:00,
2013-09-22 22:57:00,63.5,53.5,29.75,ENE,66,0.0,0.0,70,0.00,CLR,,0.00,WeatherDisplay:10.37,2013-09-23 03:57:00,
2013-09-22 23:01:00,63.4,53.4,29.75,ENE,66,0.0,0.0,70,0.00,CLR,,0.00,WeatherDisplay:10.37,2013-09-23 04:01:00,
2013-09-22 23:02:00,63.4,53.8,29.75,ENE,66,0.0,0.0,71,0.00,CLR,,0.00,WeatherDisplay:10.37,2013-09-23 04:02:00,
2013-09-22 23:07:00,63.1,53.5,29.75,ENE,66,0.0,0.0,71,0.00,CLR,,0.00,WeatherDisplay:10.37,2013-09-23 04:07:00,
2013-09-22 23:12:00,62.9,53.7,29.75,ENE,66,0.0,0.0,72,0.00,CLR,,0.00,WeatherDisplay:10.37,2013-09-23 04:12:00,
2013-09-22 23:17:00,62.7,54.3,29.75,ENE,66,0.0,0.0,74,0.00,CLR,,0.00,WeatherDisplay:10.37,2013-09-23 04:17:00,
2013-09-22 23:22:00,62.5,54.1,29.75,ENE,66,0.0,0.0,74,0.00,CLR,,0.00,WeatherDisplay:10.37,2013-09-23 04:22:00,
2013-09-22 23:27:00,62.4,54.0,29.75,ENE,66,0.0,0.0,74,0.00,CLR,,0.00,WeatherDisplay:10.37,2013-09-23 04:27:00,
2013-09-22 23:32:00,62.2,54.2,29.75,ENE,66,0.0,0.0,75,0.00,CLR,,0.00,WeatherDisplay:10.37,2013-09-23 04:32:00,
2013-09-22 23:37:00,62.1,53.7,29.75,ENE,66,0.0,0.0,74,0.00,CLR,,0.00,WeatherDisplay:10.37,2013-09-23 04:37:00,
2013-09-22 23:42:00,61.9,53.1,29.75,ENE,66,0.0,0.0,73,0.00,CLR,,0.00,WeatherDisplay:10.37,2013-09-23 04:42:00,
2013-09-22 23:47:00,61.7,53.0,29.75,ENE,66,0.0,0.0,73,0.00,CLR,,0.00,WeatherDisplay:10.37,2013-09-23 04:47:00,
2013-09-22 23:52:00,61.4,52.7,29.75,ENE,66,0.0,0.0,73,0.00,CLR,,0.00,WeatherDisplay:10.37,2013-09-23 04:52:00,
2013-09-22 23:57:00,61.2,52.8,29.75,ENE,66,0.0,0.0,74,0.00,CLR,,0.00,WeatherDisplay:10.37,2013-09-23 04:57:00,